Weather History for South Lake Tahoe, CA

Change the Weather History Date:

Saturday, July 6, 2013

  Actual Average Record
Temperature  
Mean Temperature 63 °F 60 °F  
Max Temperature 83 °F 79 °F 89 °F (2007)
Min Temperature 43 °F 41 °F 27 °F (1989)
Degree Days  
Heating Degree Days 2 5  
Month to date heating degree days 2 36  
Since 1 June heating degree days 196 346  
Since 1 July heating degree days 2 36  
Cooling Degree Days 0 0  
Month to date cooling degree days 31 0  
Year to date cooling degree days 52 1  
Since 1 June cooling degree days 52 1  
Growing Degree Days 13 (Base 50)    
Moisture  
Dew Point 33 °F    
Average Humidity 39    
Maximum Humidity 62    
Minimum Humidity 15    
Precipitation  
Precipitation 0.00 in - 0.01 in (2005)
Month to date precipitation 0.01  
Year to date precipitation 5.34  
Sea Level Pressure  
Sea Level Pressure 29.84 in    
Wind  
Wind Speed 3 mph (SW)    
Max Wind Speed 18 mph    
Max Gust Speed 26 mph    
Visibility 10 miles    
Events      
T = Trace of Precipitation, MM = Missing Value Source: NWS Daily Summary

Daily Weather History Graph

Daily Weather History Graph

Search for Another Location

Airport:

Trip Planner

Search our weather history database for the weather conditions in past years. The results will help you decide how hot, cold, wet, or windy it might be!

Date:

Astronomy

Jul. 06, 2013 Rise Set
Actual Time 5:41 AM PDT 8:28 PM PDT
Civil Twilight 5:09 AM PDT 8:59 PM PDT
Nautical Twilight 4:29 AM PDT 9:39 PM PDT
Astronomical Twilight 3:44 AM PDT 10:24 PM PDT
Moon 4:30 AM PDT (7/6) 7:13 PM PDT (7/6)
Length of Visible Light 15h 50m
Length of Day
14h 47m
Waning Crescent, 2% of the Moon is Illuminated
Jul 6
Waning Crescent
Jul 8
New
Jul 15
First Quarter
Jul 22
Full
Jul 29
Last Quarter

Hourly Weather History & Observations

Time (PDT) Temp. Dew Point Humidity Pressure Visibility Wind Dir Wind Speed Gust Speed Precip Events Conditions
12:53 AM 52.0 °F 30.9 °F 45% 29.83 in 10.0 mi Calm Calm - N/A   Clear
1:53 AM 48.9 °F 28.0 °F 44% 29.83 in 10.0 mi Calm Calm - N/A   Clear
2:53 AM 48.0 °F 30.9 °F 52% 29.83 in 10.0 mi SSW 3.5 mph - N/A   Clear
3:53 AM 45.0 °F 30.0 °F 56% 29.83 in 10.0 mi Calm Calm - N/A   Clear
4:53 AM 45.0 °F 32.0 °F 60% 29.83 in 10.0 mi Calm Calm - N/A   Clear
5:53 AM 44.1 °F 30.9 °F 60% 29.84 in 10.0 mi Calm Calm - N/A   Clear
6:53 AM 48.9 °F 30.9 °F 50% 29.84 in 10.0 mi North 3.5 mph - N/A   Clear
7:53 AM 62.1 °F 39.0 °F 43% 29.83 in 10.0 mi NE 4.6 mph - N/A   Clear
8:53 AM 71.1 °F 39.9 °F 32% 29.83 in 10.0 mi Calm Calm - N/A   Clear
9:53 AM 75.9 °F 32.0 °F 20% 29.82 in 10.0 mi Variable 5.8 mph - N/A   Clear
10:53 AM 79.0 °F 33.1 °F 19% 29.83 in 10.0 mi SW 9.2 mph - N/A   Clear
11:53 AM 81.0 °F 30.9 °F 16% 29.84 in 10.0 mi SW 8.1 mph 24.2 mph N/A   Clear
12:53 PM 80.1 °F 32.0 °F 17% 29.85 in 10.0 mi SW 10.4 mph 23.0 mph N/A   Clear
1:53 PM 82.9 °F 32.0 °F 16% 29.84 in 10.0 mi South 11.5 mph 16.1 mph N/A   Clear
2:53 PM 82.0 °F 30.9 °F 16% 29.84 in 10.0 mi South 16.1 mph - N/A   Clear
3:53 PM 82.0 °F 30.9 °F 16% 29.84 in 10.0 mi Variable 4.6 mph 20.7 mph N/A   Clear
4:53 PM 80.1 °F 32.0 °F 17% 29.84 in 10.0 mi SW 8.1 mph 23.0 mph N/A   Clear
5:53 PM 78.1 °F 32.0 °F 19% 29.85 in 10.0 mi WSW 9.2 mph 17.3 mph N/A   Clear
6:53 PM 75.0 °F 33.1 °F 22% 29.85 in 10.0 mi Variable 6.9 mph - N/A   Clear
7:53 PM 72.0 °F 33.1 °F 24% 29.83 in 10.0 mi SSW 6.9 mph - N/A   Clear
8:53 PM 68.0 °F 35.1 °F 30% 29.83 in 10.0 mi SW 3.5 mph - N/A   Clear
9:53 PM 61.0 °F 37.0 °F 41% 29.86 in 10.0 mi Calm Calm - N/A   Clear
10:53 PM 57.0 °F 37.9 °F 49% 29.86 in 10.0 mi Calm Calm - N/A   Clear
11:53 PM 54.0 °F 37.0 °F 53% 29.87 in 10.0 mi Calm Calm - N/A   Clear